Location: Le Petit-Vavre
(46.5081°N, 1.5239°E)
Time: 17:03:39
(UTC+00:00)

Cosmos 2219 Rocket - Visible Passes

Search period start: 22 June 2021 00:00
Search period end: 02 July 2021 00:00
Orbit: 827 x 847 km, 71.0° (Epoch: 21 June)

Date Brightness Start Highest point End Pass type
(mag) Time Alt. Az. Time Alt. Az. Time Alt. Az.
22 Jun 2.4 21:27:25 10° SSW 21:33:05 74° WNW 21:38:48 10° NNE visible
22 Jun 4.9 23:14:29 10° W 23:18:04 17° NW 23:21:39 10° N visible
23 Jun 2.4 21:10:59 10° SSW 21:16:41 79° WNW 21:22:23 10° NNE visible
23 Jun 4.9 22:57:50 10° W 23:01:35 18° NW 23:05:20 10° N visible
24 Jun 2.3 20:54:34 10° SSW 21:00:16 85° WNW 21:05:59 10° NNE visible
24 Jun 4.9 22:41:12 10° W 22:45:06 19° NW 22:49:01 10° N visible
25 Jun 2.3 20:38:10 10° SSW 20:43:51 90° WSW 20:49:34 10° NNE visible
25 Jun 4.9 22:24:35 10° W 22:28:37 20° NW 22:32:41 10° N visible
26 Jun 2.2 20:21:46 10° SSW 20:27:27 85° ESE 20:33:10 10° NNE visible
26 Jun 4.9 22:07:57 10° W 22:12:09 21° NW 22:16:21 10° N visible
27 Jun 4.8 21:51:22 10° W 21:55:41 22° NW 22:00:00 10° N visible
28 Jun 5.5 03:13:34 10° N 03:16:35 14° NE 03:19:35 10° ENE visible
28 Jun 4.8 21:34:46 10° W 21:39:13 23° NW 21:43:40 10° N visible
29 Jun 5.6 02:57:18 10° N 03:00:06 14° NE 03:02:52 10° ENE visible
29 Jun 4.8 21:18:11 10° W 21:22:45 24° NW 21:27:19 10° N visible
30 Jun 5.6 02:41:03 10° N 02:43:35 13° NE 02:46:08 10° ENE visible
30 Jun 4.7 21:01:37 10° WSW 21:06:17 26° NW 21:10:58 10° N visible
01 Jul 5.7 02:24:49 10° N 02:27:06 12° NE 02:29:22 10° ENE visible
01 Jul 4.7 20:45:03 10° WSW 20:49:50 27° NW 20:54:37 10° N visible
